Regional Weather Roundup
Issued by NWS Midland/Odessa, TX

Current Version | Previous Version | Text Only | Print | Product List | Glossary On
Versions: 1 2 3 4 5 6 7 8 9 10 11 12 13 14 15 16 17 18 19 20 21 22 23 24 25 26 27 28 29 30 31 32 33 34 35 36 37 38 39 40 41 42 43 44 45 46 47 48 49 50
000
ASUS44 KMAF 141710
RWRMAF
MIDLAND AREA WEATHER ROUNDUP
NATIONAL WEATHER SERVICE MIDLAND TX
1200 PM CDT TUE AUG 14 2018

...IN SOUTHWEST TEXAS AND SOUTHEAST NEW MEXICO...

CITY           SKY/WX    TMP DP  RH WIND       PRES   REMARKS
ALPINE         SUNNY     82  61  50 SW9       30.15S
ANDREWS        FAIR      82  65  55 S8        30.01S
ARTESIA        SUNNY     84  63  48 SE7       29.99S
BIG SPRING     SUNNY     81  68  65 S17G23    30.02R
CARLSBAD       SUNNY     85  63  47 E7        29.96S
DRYDEN           N/A     78  70  76 E3        29.99
FORT STOCKTON  SUNNY     87  61  41 W6        29.98S
GUAD PASS      SUNNY     80  57  45 SW21G29   30.14S
HOBBS          SUNNY     84  63  48 S10       30.01S
LAMESA         FAIR      82  66  57 S12       30.01S
MARFA            N/A     79  60  52 MISG        N/A
MIDLAND AIRPK    N/A     86  68  54 SW9G16    30.00S
MIDLAND INTL   SUNNY     83  68  60 S10       29.99S
ODESSA         SUNNY     82  66  58 S10       30.00S
PECOS          SUNNY     88  62  41 E6        29.96S
PRESIDIO       FAIR      82  65  57 CALM      30.03S
SEMINOLE       SUNNY     81  66  59 S8        30.02S
SNYDER         MOSUNNY   81  68  65 S14G22    29.99S
WINK           SUNNY     87  63  44 VRB6      29.96S
$$
...OTHER STATIONS IN TEXAS...

CITY           SKY/WX    TMP DP  RH WIND       PRES   REMARKS
ABILENE        CLOUDY    85  32  15 S17G23    29.98S
AMARILLO       SUNNY     85  58  39 VRB3      30.01S
AUSTIN         PTSUNNY   89  70  53 S15G24    29.99S
BROWNSVILLE    PTSUNNY   92  73  53 S17       29.96F HX 100
CORPUS CHRISTI PTSUNNY   91  74  57 S17G23    29.97S HX 100
DALLAS FTW     CLOUDY    81  71  71 S9        29.98S
DEL RIO        CLOUDY    81  74  79 SE10      29.96R
EL PASO        MOSUNNY   86  56  35 SW10      30.03R
HOUSTON INT    PTSUNNY   91  74  57 S12       30.02S HX 100
LUBBOCK        MOSUNNY   80  66  62 S10       30.00S
SAN ANGELO     PTSUNNY   81  68  64 S10       29.99R
SAN ANTONIO    MOSUNNY   88  69  53 SE16G23   30.01S
WACO           MOSUNNY   92  68  45 S17       29.99S
WICHITA FALLS  PTSUNNY   77  69  76 SW8       29.91F
$$
...OTHER LOCATIONS IN NEW MEXICO...

CITY           SKY/WX    TMP DP  RH WIND       PRES   REMARKS
ALAMOGORDO     SUNNY     84  55  37 S10       30.05S
ALBUQUERQUE    MOSUNNY   78  49  35 CALM      30.13R
CANNON AFB     SUNNY     77  74  91 SW6       30.05S
CLOVIS         SUNNY     79  62  56 SW6       30.05S
HOLLOMAN AFB   SUNNY     88  54  31 S13       30.05S
ROSWELL        SUNNY     86  59  39 CALM      29.99S
RUIDOSO          N/A     77  48  36 NW8       30.24
SANTA FE       SUNNY     78  44  29 NE5       30.18R
TRUTH OR CONSE SUNNY     83  49  30 VRB5      30.07S
TUCUMCARI      SUNNY     81  61  50 MISG      30.01R
$$



USA.gov is the U.S. government's official web portal to all federal, state and local government web resources and services.